[[{"header":{"parameterUnit":"m.s-1","parameterCategory":1,"la1":30.2991,"la2":30.254,"lo1":-89.0895,"lo2":-89.0444,"dy":0.0017,"dx":0.0017,"nx":28,"ny":28,"refTime":"2025-04-25T21:00:00:Z","depth":0,"parameterNumber":2,"parameterNumberName":"U-component_of_WINDS"},"data":[0,0,0,0,0,0,0,0,0,0,0,0,0,0,0,0,0,0,0,0,0,0,0,0,0,0,0,0,0,0,0,0,0,0,0,0,0,0,0,0,0,0,0,0,0,0,0,0,0,0,0,0,0,0,0,0,0,0,1.3347,1.3348,0,1.3445,1.3446,1.3447,1.3458,1.3457,1.3456,1.3455,1.3556,1.3559,1.3563,0,0,0,0,0,0,0,0,0,0,0,0,0,1.3169,1.3172,1.3347,1.3348,1.3349,1.3445,1.3446,1.3447,1.3458,1.3457,1.3456,1.3455,1.3554,1.3559,1.3563,0,0,0,0,0,0,0,0,0,0,0,0,0,1.3254,1.3173,1.3347,1.3366,1.3369,1.3444,1.3446,1.3448,1.3459,1.3457,1.3456,1.3454,1.3553,1.3558,1.3563,1.3626,0,0,1.358,1.3582,0,0,0,0,0,0,0,0,1.3249,1.3261,1.3362,1.3365,1.3368,1.3438,1.342,1.3507,1.3459,1.3425,1.3455,1.3454,1.3518,1.3526,1.3547,1.363,1.3635,1.358,1.3584,1.3586,1.3587,0,0,0,0,0,0,0,1.3243,1.3257,1.3386,1.3364,1.3368,1.337,1.3381,1.3436,1.3478,1.3428,1.3429,1.344,1.3519,1.3542,1.355,1.3636,1.358,1.3585,1.3588,1.359,1.3773,1.3775,0,0,0,0,0,0,1.3234,1.3252,1.3383,1.3389,1.3304,1.3374,1.3386,1.3417,1.3478,1.3485,1.3441,1.344,1.3534,1.3543,1.3553,1.3629,1.3586,1.3591,1.3594,1.3772,1.3774,1.3776,0,0,0,0,0,0,1.323,1.3246,1.3379,1.332,1.3338,1.3379,1.3414,1.342,1.3443,1.3488,1.3495,1.3457,1.3533,1.3546,1.3607,1.3633,1.3593,1.3598,1.377,1.3772,1.3775,1.3781,0,0,0,0,0,0,1.3225,1.3244,1.3268,1.3321,1.3341,1.3431,1.3415,1.3423,1.3452,1.3452,1.3505,1.3512,1.3533,1.3599,1.3613,1.3639,1.3602,1.3768,1.3771,1.3774,1.3779,1.3784,1.3788,0,0,0,0,0,1.3218,1.3267,1.327,1.3285,1.3372,1.3433,1.3444,1.3467,1.3454,1.3479,1.3507,1.3511,1.3628,1.3605,1.3621,1.3649,1.3766,1.377,1.3774,1.3777,1.3783,1.3788,0,0,0,0,0,0,1.3217,1.3274,1.3278,1.3345,1.3384,1.3434,1.3466,1.3472,1.3516,1.3513,1.354,1.3551,1.3611,1.3637,1.3611,1.3712,1.3696,1.3703,1.3693,1.3699,1.3703,1.3696,1.3607,0,0,0,0,0,1.3224,1.3269,1.3316,1.3371,1.339,1.3425,1.3452,1.3466,1.3507,1.3524,1.3557,1.3597,1.3643,1.3672,1.3717,1.3783,1.3794,1.381,1.3814,1.3818,1.3823,1.3858,1.3866,1.3788,1.3788,1.3788,0,0,1.324,1.3276,1.3303,1.3371,1.3403,1.3448,1.3439,1.3487,1.3521,1.3531,1.3591,1.3617,1.3663,1.3726,1.3756,1.3749,1.3847,1.3822,1.3825,1.3829,1.3863,1.387,1.3877,1.379,1.379,1.3789,0,0,1.3291,1.3324,1.3372,1.3404,1.3452,1.3475,1.3486,1.3536,1.3553,1.3613,1.3622,1.3662,1.3741,1.3773,1.3799,1.3861,1.3866,1.3875,1.3898,1.3932,1.3938,1.3944,1.3965,1.3972,1.3881,1.3881,1.3881,0,1.3304,1.3373,1.3396,1.3444,1.3473,1.3484,1.3533,1.3563,1.3623,1.3642,1.3634,1.3732,1.3764,1.3834,1.3849,1.3871,1.3884,1.3869,1.3935,1.3941,1.3947,1.3967,1.3975,1.3882,1.3881,1.3881,1.3881,0,1.3386,1.3433,1.3467,1.3524,1.3557,1.3605,1.3634,1.3665,1.3676,1.3699,1.3759,1.3798,1.385,1.3868,1.3879,1.394,1.3934,1.393,1.3914,1.3955,1.3974,1.3982,1.3883,1.3882,1.3882,1.3882,0,0,1.344,1.3508,1.352,1.3545,1.3599,1.3636,1.3684,1.3734,1.3759,1.38,1.384,1.3906,1.3902,1.3933,1.3947,1.3977,1.4022,1.397,1.3971,1.3977,1.409,1.4092,1.4101,1.4026,1.4027,1.4029,1.4086,0,1.3496,1.3582,1.3604,1.3677,1.372,1.3731,1.3772,1.3809,1.3832,1.3872,1.3897,1.3942,1.3935,1.3953,1.3983,1.4011,1.4045,1.4007,1.4063,1.4064,1.405,1.4111,1.4114,1.4166,1.4094,1.4095,1.4096,0,1.3574,1.3616,1.3693,1.374,1.3759,1.3796,1.3843,1.3881,1.3923,1.3937,1.397,1.3982,1.4031,1.4013,1.4081,1.4054,1.4078,1.4095,1.4098,1.4103,1.4082,1.4117,1.4183,1.419,1.4108,1.4107,1.4107,0,1.3604,1.368,1.3735,1.3757,1.3813,1.3838,1.3863,1.3903,1.3932,1.3973,1.3991,1.4038,1.4064,1.4099,1.4123,1.4107,1.4188,1.4173,1.4201,1.42,1.4217,1.4216,1.4287,1.4234,1.4234,1.4234,1.4234,0,1.3665,1.3711,1.3749,1.3783,1.3835,1.3859,1.391,1.3935,1.397,1.4009,1.4021,1.4057,1.4086,1.4126,1.4145,1.4197,1.4209,1.4222,1.4226,1.422,1.4218,1.4236,1.4232,1.4236,1.4235,1.4235,1.4235,0,1.3707,1.3734,1.3795,1.3843,1.3856,1.3892,1.3932,1.3965,1.3988,1.4037,1.4049,1.4085,1.4132,1.4159,1.4219,1.4231,1.429,1.4293,1.4276,1.4277,1.4304,1.43,1.4388,1.44,1.434,1.434,1.4341,0,1.3743,1.3779,1.383,1.3857,1.3881,1.3924,1.3953,1.3978,1.4007,1.4057,1.4084,1.4131,1.4171,1.4246,1.4277,1.4322,1.4326,1.4353,1.4333,1.4325,1.4325,1.4322,1.4325,1.4356,1.4357,1.4357,1.4358,0,1.3805,1.3816,1.3858,1.3903,1.3937,1.3975,1.4012,1.4033,1.4063,1.4096,1.4144,1.4174,1.4235,1.4282,1.4329,1.4354,1.4361,1.4364,1.4373,1.4367,1.4355,1.4361,1.4284,1.4362,1.4361,1.4361,1.4361,1.4361,1.3845,1.3876,1.3917,1.3962,1.3992,1.4026,1.4059,1.4086,1.4126,1.4177,1.4189,1.4239,1.4279,1.4344,1.4369,1.4409,1.4404,1.4417,1.442,1.4423,1.4423,1.4349,1.4418,1.4418,1.4418,1.4417,1.4417,0,1.3906,1.3932,1.3973,1.4024,1.406,1.4063,1.4104,1.4133,1.4177,1.4213,1.4251,1.4306,1.4351,1.4385,1.4431,1.4456,1.446,1.4468,1.4466,1.4471,1.4425,1.4412,1.4463,1.4463,1.4463,1.4463,1.4463,1.4463,1.3942,1.3995,1.4011,1.408,1.4106,1.4155,1.4178,1.4209,1.4238,1.4298,1.4335,1.4357,1.4392,1.4441,1.4482,1.4491,1.4507,1.4514,1.4523,1.4479,1.4474,1.447,1.4458,1.4517,1.4517,1.4565,1.4565,1.4566]},{"header":{"parameterUnit":"m.s-1","parameterCategory":1,"la1":30.2991,"la2":30.254,"lo1":-89.0895,"lo2":-89.0444,"dy":0.0017,"dx":0.0017,"nx":28,"ny":28,"refTime":"2025-04-25T21:00:00:Z","depth":0,"parameterNumber":3,"parameterNumberName":"V-component_of_WINDS"},"data":[0,0,0,0,0,0,0,0,0,0,0,0,0,0,0,0,0,0,0,0,0,0,0,0,0,0,0,0,0,0,0,0,0,0,0,0,0,0,0,0,0,0,0,0,0,0,0,0,0,0,0,0,0,0,0,0,0,0,1.9911,1.9911,0,1.9894,1.9894,1.9894,1.9849,1.9848,1.9847,1.9846,1.983,1.983,1.9831,0,0,0,0,0,0,0,0,0,0,0,0,0,1.9905,1.9905,1.9911,1.9911,1.9911,1.9894,1.9894,1.9894,1.9849,1.9848,1.9847,1.9846,1.983,1.983,1.9831,0,0,0,0,0,0,0,0,0,0,0,0,0,1.99,1.9905,1.9911,1.9887,1.9884,1.9894,1.9894,1.9894,1.985,1.9848,1.9847,1.9846,1.9829,1.983,1.9831,1.9864,0,0,1.9833,1.9833,0,0,0,0,0,0,0,0,1.99,1.99,1.9891,1.9888,1.9886,1.9872,1.9886,1.9884,1.985,1.9863,1.9846,1.9845,1.9845,1.9844,1.9844,1.9863,1.9862,1.9833,1.9833,1.9833,1.9834,0,0,0,0,0,0,0,1.9901,1.9901,1.9905,1.989,1.9888,1.9876,1.9874,1.9885,1.9862,1.9862,1.9858,1.9857,1.9844,1.9844,1.9844,1.9862,1.9833,1.9833,1.9834,1.9834,1.9905,1.9907,0,0,0,0,0,0,1.9904,1.9901,1.9905,1.9904,1.989,1.9878,1.9875,1.9878,1.9862,1.9858,1.9858,1.9855,1.9843,1.9843,1.9843,1.988,1.9833,1.9834,1.9834,1.9904,1.9906,1.9907,0,0,0,0,0,0,1.9904,1.9905,1.9906,1.9902,1.9901,1.9879,1.9883,1.9879,1.9879,1.9859,1.9855,1.9863,1.9842,1.9842,1.9859,1.9879,1.9834,1.9835,1.9902,1.9904,1.9907,1.9954,0,0,0,0,0,0,1.9904,1.9905,1.9918,1.9902,1.9901,1.9922,1.9884,1.9879,1.988,1.9876,1.9863,1.9859,1.9841,1.9858,1.9859,1.9879,1.9836,1.99,1.9903,1.9906,1.9951,1.9958,1.9964,0,0,0,0,0,1.9904,1.9932,1.9919,1.9919,1.9916,1.9923,1.9923,1.9901,1.9882,1.9894,1.9881,1.9859,1.9876,1.986,1.9861,1.9881,1.9899,1.9902,1.9906,1.9948,1.9957,1.9964,0,0,0,0,0,0,1.9951,1.993,1.9915,1.9938,1.9933,1.9916,1.993,1.9911,1.9911,1.9907,1.9881,1.9878,1.9899,1.9891,1.9874,1.9912,1.9884,1.9888,1.9916,1.9924,1.993,1.9932,1.9836,0,0,0,0,0,1.9964,1.9972,1.9952,1.9975,1.9973,1.9952,1.9955,1.9939,1.9932,1.993,1.9918,1.9913,1.9916,1.992,1.9922,1.995,1.9946,1.9964,1.9971,1.9976,1.998,1.9993,2.0001,1.9918,1.9918,1.9918,0,0,1.9991,1.9981,1.9987,1.9984,1.9978,1.9986,1.9951,1.9961,1.9967,1.9931,1.9946,1.9937,1.9929,1.9951,1.996,1.9946,2.0001,1.998,1.9985,1.9985,1.9997,2.0005,2.0012,1.9921,1.992,1.992,0,0,2.0045,2.0038,2.0056,2.005,2.0041,2.0027,2.0031,2.0017,2.0009,2.0024,1.9997,2.0003,2.0011,2.0006,2.0005,2.0055,2.0035,2.0057,2.0091,2.0105,2.0111,2.0117,2.0135,2.0141,2.0061,2.0061,2.0061,0,2.008,2.0091,2.0067,2.0079,2.0078,2.0046,2.0064,2.006,2.0052,2.0052,2.0036,2.0044,2.0037,2.0057,2.0069,2.0069,2.0073,2.0058,2.0112,2.0117,2.0122,2.0139,2.0146,2.0063,2.0063,2.0063,2.0063,0,2.0134,2.0142,2.0158,2.0151,2.0152,2.0167,2.0145,2.0149,2.0133,2.012,2.0135,2.0124,2.0124,2.0128,2.0112,2.0145,2.0137,2.0117,2.0088,2.0133,2.0148,2.0155,2.0067,2.0066,2.0065,2.0065,0,0,2.0217,2.0196,2.0203,2.0199,2.0186,2.0192,2.0205,2.0204,2.0208,2.0204,2.0214,2.022,2.0201,2.02,2.0183,2.0195,2.0235,2.0173,2.0173,2.0185,2.0271,2.0286,2.0294,2.0222,2.0223,2.0224,2.0272,0,2.0268,2.0289,2.0267,2.0292,2.0299,2.0268,2.0279,2.0273,2.0261,2.0265,2.0252,2.0257,2.0232,2.0231,2.0241,2.0228,2.0252,2.0225,2.0231,2.0231,2.0234,2.0302,2.0318,2.0364,2.0277,2.0278,2.0279,0,2.0329,2.0327,2.0353,2.0338,2.034,2.0351,2.0348,2.0352,2.0344,2.0334,2.0332,2.0312,2.0324,2.0296,2.0311,2.0293,2.0294,2.0288,2.0289,2.0289,2.0258,2.0304,2.0378,2.0385,2.0288,2.0288,2.0287,0,2.0387,2.0391,2.0407,2.0404,2.0387,2.0395,2.0389,2.0379,2.0379,2.0377,2.0377,2.0376,2.0376,2.0375,2.0355,2.0337,2.0373,2.0344,2.0365,2.0366,2.0375,2.0374,2.045,2.0376,2.0375,2.0375,2.0375,0,2.0446,2.0463,2.0432,2.0442,2.046,2.0435,2.0453,2.0444,2.0435,2.0442,2.0415,2.0422,2.0395,2.04,2.0384,2.0399,2.0399,2.0392,2.0387,2.0394,2.0395,2.0395,2.0391,2.0377,2.0377,2.0376,2.0376,0,2.0513,2.0494,2.0509,2.0491,2.0487,2.0501,2.0486,2.0494,2.048,2.049,2.049,2.0469,2.0473,2.0452,2.0453,2.0442,2.0464,2.0455,2.0467,2.0464,2.0487,2.0485,2.0565,2.0575,2.0494,2.0495,2.0496,0,2.0552,2.0564,2.0548,2.055,2.0545,2.0549,2.055,2.0525,2.0527,2.0518,2.0527,2.0528,2.0528,2.0535,2.052,2.052,2.051,2.0538,2.0509,2.0516,2.051,2.0509,2.051,2.0544,2.0545,2.0546,2.0546,0,2.0622,2.0612,2.0613,2.0611,2.0612,2.061,2.0605,2.0609,2.0583,2.0586,2.0589,2.0589,2.0588,2.059,2.0586,2.0579,2.0558,2.0555,2.056,2.0567,2.0574,2.057,2.0483,2.0553,2.0553,2.0552,2.0552,2.0552,2.0677,2.0686,2.0675,2.0678,2.0671,2.0668,2.0674,2.0661,2.0663,2.0661,2.0646,2.0652,2.0643,2.0636,2.0631,2.0635,2.0621,2.0629,2.0631,2.0633,2.0637,2.0573,2.0634,2.0634,2.0634,2.0633,2.0633,0,2.0745,2.0737,2.0739,2.0734,2.0735,2.0715,2.0709,2.0712,2.0717,2.071,2.071,2.0713,2.0714,2.0699,2.0698,2.0704,2.0695,2.0705,2.0704,2.0703,2.0649,2.0645,2.0712,2.0712,2.0712,2.0712,2.0712,2.0712,2.0782,2.0796,2.0784,2.0795,2.0786,2.0791,2.0789,2.0786,2.078,2.0785,2.0785,2.0775,2.0764,2.0762,2.0762,2.0757,2.0758,2.0772,2.0764,2.0714,2.0707,2.0699,2.0695,2.0772,2.0772,2.0817,2.0818,2.0818]}]]